Probability
0 0 0 0 0 0 0 0 0 0 0 0 0 0 0 0 0 0 0 0 0 0 0 0 3 0 0 0 0 0 0 0 0 0 0 0 0 0 0 0 0 0 0 0
0 0 0 0 0 0 0 0 0 0 0 0 0 0 0 0 0 0 0 0 0 0 0 0 3 3 0 0 0 0 0 0 0 0 0 0 0 0 0 0 0 0 0 0
0 0 0 0 0 0 0 0 0 0 0 0 0 0 0 0 0 0 0 0 0 0 0 0 3 3 0 0 0 0 0 0 0 0 0 0 0 0 0 0 0 0 0 0
0 0 0 0 0 0 0 0 0 0 0 0 0 0 0 0 0 0 0 0 0 0 0 0 3 3 0 0 0 0 0 0 0 0 0 0 0 0 0 0 0 0 0 0
0 0 0 0 0 0 0 0 0 0 0 0 0 0 0 0 0 0 0 0 0 0 0 0 0 3 3 0 0 0 0 0 0 0 0 0 0 0 0 0 0 0 0 0
0 0 0 0 0 0 0 0 0 0 0 0 0 0 0 0 0 0 0 0 0 0 0 0 0 3 3 0 0 0 0 0 0 0 0 0 0 0 0 0 0 0 0 0
0 0 0 0 0 0 0 0 0 0 0 0 0 0 0 0 0 0 0 0 0 0 0 0 0 3 0 0 0 0 0 0 0 0 0 0 0 0 0 0 0 0 0 0
0 0 0 0 0 0 0 0 0 0 0 0 0 0 0 0 0 0 0 0 0 0 0 0 0 3 0 0 0 0 0 0 0 0 0 0 0 0 0 0 0 0 0 0
0 0 0 0 0 0 0 0 0 0 0 0 0 0 0 0 0 0 0 0 0 0 0 0 0 0 0 0 0 0 0 0 0 0 0 0 0 0 0 0 0 0 0 0
0 0 0 0 0 0 0 0 0 0 0 0 0 0 0 0 0 0 0 0 0 0 0 0 0 0 0 0 0 0 0 0 0 0 0 0 0 0 0 0 0 0 0 0
0 0 0 0 0 0 0 0 0 0 0 0 0 0 0 0 0 0 0 0 0 0 0 0 0 0 0 0 0 0 0 0 0 0 0 0 0 0 0 0 0 0 0 0
0 0 0 0 0 0 0 0 0 0 0 0 0 0 0 0 0 0 0 0 0 0 0 0 0 0 0 0 0 0 0 0 0 0 0 0 0 0 0 0 0 0 0 0
0 0 0 0 0 0 0 0 0 0 0 0 0 0 0 0 0 0 0 0 0 0 0 0 0 0 0 0 0 0 0 0 0 0 0 0 0 0 0 0 0 0 0 0
0 0 0 0 0 0 0 0 0 0 0 0 0 0 0 0 0 0 0 0 0 0 0 0 0 0 0 0 0 0 0 0 0 0 0 0 0 0 0 0 0 0 0 0
0 0 0 0 0 0 0 0 0 0 0 0 0 0 0 0 0 0 0 0 0 0 0 0 0 0 0 0 0 0 0 0 0 0 0 0 0 0 0 0 0 0 0 0
0 0 0 0 0 0 0 0 0 0 0 0 0 0 0 0 0 0 0 0 0 0 0 0 0 0 0 0 0 0 0 0 0 0 0 0 0 0 0 0 0 0 0 0
0 0 0 0 0 0 0 0 0 0 0 0 0 0 0 0 0 0 0 0 0 0 0 0 0 0 0 0 0 0 0 0 0 0 0 0 0 0 0 0 0 0 0 0
0 0 0 0 0 0 0 0 0 0 0 0 0 0 0 0 0 0 0 0 0 0 0 0 0 0 0 0 0 0 0 0 0 0 0 0 0 0 0 0 0 0 0 0
0 0 0 0 0 0 0 0 0 0 0 0 0 0 0 0 0 0 0 0 0 0 0 0 0 0 0 0 0 0 0 0 0 0 0 0 0 0 0 0 0 0 0 0
0 0 0 0 0 0 0 0 0 0 0 0 0 0 0 0 0 0 0 0 0 0 0 0 0 0 0 0 0 0 0 0 0 0 0 0 0 0 0 0 0 0 0 0
0 0 0 0 0 0 0 0 0 0 0 0 0 0 0 0 0 0 0 0 0 0 0 0 0 0 0 0 0 0 0 0 0 0 0 0 0 0 0 0 0 0 0 0
0 0 0 0 0 0 0 0 0 0 0 0 0 0 0 0 0 0 0 0 0 0 0 0 0 0 0 0 0 0 0 0 0 0 0 0 0 0 0 0 0 0 0 0
0 0 0 0 0 0 0 0 0 0 0 0 0 0 0 0 0 0 0 0 0 0 0 0 0 0 0 0 0 0 0 0 0 0 0 0 0 0 0 0 0 0 0 0
0 0 0 0 0 0 0 0 0 0 0 0 0 0 0 0 0 0 0 0 0 0 0 0 0 0 0 0 0 0 0 0 0 0 0 0 0 0 0 0 0 0 0 0
0 0 0 0 0 0 0 0 0 0 0 0 0 0 0 0 0 0 0 0 0 0 0 0 0 0 0 0 0 0 0 0 0 0 0 0 0 0 0 0 0 0 0 0
0 0 0 0 0 0 0 0 0 0 0 0 0 0 0 0 0 0 0 0 0 0 0 0 0 0 0 0 0 0 0 0 0 0 0 0 0 0 0 0 0 0 0 0
Height
5823 5825 5826 5827 5828 5830 5831 5833 5834 5836 5836 5838 5838 5840 5841 5842 5842 5843 5843 5844 5844 5844 5845 5844 5844 5844 5844 5844 5843 5843 5843 5842 5842 5841 5841 5840 5839 5838 5837 5836 5835 5834 5833 5832
5821 5822 5823 5824 5825 5827 5828 5830 5831 5833 5833 5834 5835 5837 5838 5839 5840 5840 5840 5841 5841 5842 5842 5842 5842 5842 5841 5841 5841 5841 5841 5840 5839 5839 5838 5837 5836 5835 5834 5833 5831 5830 5830 5829
5818 5820 5820 5821 5823 5824 5826 5827 5829 5829 5830 5831 5833 5834 5835 5836 5836 5837 5837 5838 5838 5839 5839 5839 5839 5839 5839 5838 5838 5838 5837 5837 5836 5835 5835 5834 5833 5832 5830 5829 5828 5827 5826 5825
5815 5816 5817 5819 5820 5821 5823 5824 5825 5826 5827 5828 5830 5830 5832 5832 5833 5833 5834 5834 5835 5835 5835 5835 5836 5836 5835 5835 5835 5834 5834 5834 5833 5832 5831 5830 5829 5828 5826 5825 5824 5823 5822 5821
5812 5814 5815 5816 5818 5819 5820 5821 5822 5823 5824 5825 5826 5826 5829 5829 5829 5830 5830 5831 5831 5832 5832 5832 5832 5832 5832 5831 5831 5831 5830 5830 5829 5828 5827 5826 5825 5824 5822 5821 5820 5819 5818 5817
5810 5811 5813 5814 5815 5817 5818 5819 5819 5820 5821 5822 5822 5823 5824 5825 5825 5826 5826 5827 5827 5828 5828 5828 5828 5828 5828 5828 5827 5827 5826 5826 5825 5824 5823 5822 5821 5820 5818 5817 5816 5815 5813 5812
5808 5809 5810 5811 5813 5814 5815 5816 5816 5817 5817 5818 5819 5819 5820 5820 5821 5821 5822 5822 5823 5823 5823 5824 5824 5824 5824 5823 5823 5823 5822 5822 5821 5820 5819 5817 5816 5815 5813 5812 5811 5810 5809 5808
5806 5807 5808 5809 5810 5811 5812 5813 5814 5814 5814 5814 5815 5815 5817 5816 5816 5816 5817 5818 5818 5818 5819 5819 5819 5819 5819 5819 5818 5818 5817 5817 5816 5815 5814 5813 5811 5810 5809 5808 5807 5806 5804 5803
5804 5805 5806 5806 5807 5808 5809 5809 5810 5810 5810 5810 5810 5811 5812 5812 5811 5812 5812 5812 5813 5813 5813 5814 5814 5814 5814 5814 5814 5813 5813 5812 5811 5810 5809 5808 5806 5806 5804 5803 5802 5801 5799 5798
5801 5803 5804 5804 5805 5805 5806 5806 5806 5806 5805 5805 5806 5807 5808 5807 5807 5807 5807 5807 5807 5808 5808 5808 5808 5808 5808 5808 5808 5808 5807 5806 5806 5805 5804 5803 5802 5801 5800 5798 5797 5796 5795 5793
5798 5799 5801 5801 5801 5802 5802 5803 5802 5802 5802 5801 5801 5804 5803 5803 5803 5802 5802 5802 5802 5802 5802 5803 5803 5803 5803 5802 5802 5802 5801 5801 5800 5799 5798 5797 5797 5795 5794 5793 5792 5791 5789 5788
5795 5796 5796 5797 5798 5798 5798 5798 5798 5799 5798 5797 5797 5801 5799 5798 5797 5797 5797 5797 5797 5797 5797 5797 5797 5797 5797 5797 5796 5796 5796 5795 5794 5793 5793 5792 5791 5790 5789 5788 5786 5785 5784 5782
5791 5792 5792 5793 5795 5795 5794 5794 5794 5794 5794 5793 5793 5796 5794 5793 5792 5792 5792 5792 5791 5791 5791 5792 5792 5791 5791 5791 5791 5790 5790 5789 5788 5787 5787 5786 5785 5784 5783 5782 5780 5779 5778 5776
5787 5787 5789 5789 5789 5789 5789 5790 5789 5789 5788 5788 5789 5789 5789 5788 5788 5787 5787 5786 5786 5786 5786 5786 5786 5786 5786 5786 5785 5785 5784 5783 5782 5781 5781 5780 5779 5778 5777 5776 5774 5773 5772 5770
5782 5783 5783 5784 5784 5784 5784 5784 5784 5784 5784 5783 5784 5784 5784 5783 5782 5782 5782 5781 5781 5781 5781 5780 5780 5780 5780 5780 5779 5778 5777 5777 5776 5775 5774 5774 5773 5772 5771 5770 5768 5767 5765 5764
5777 5778 5778 5779 5779 5778 5779 5779 5779 5779 5779 5778 5778 5779 5778 5777 5777 5777 5776 5776 5775 5775 5775 5775 5774 5774 5774 5773 5773 5772 5771 5770 5770 5769 5768 5767 5767 5766 5764 5763 5762 5760 5759 5757
5772 5773 5773 5774 5774 5773 5774 5775 5774 5774 5773 5773 5773 5774 5772 5772 5771 5771 5771 5770 5770 5769 5769 5769 5769 5768 5768 5767 5766 5766 5765 5764 5763 5762 5762 5761 5760 5759 5758 5757 5755 5754 5752 5751
5767 5767 5767 5768 5769 5767 5772 5770 5768 5768 5768 5767 5767 5767 5766 5766 5766 5765 5765 5764 5763 5763 5763 5763 5762 5762 5761 5760 5760 5759 5758 5757 5757 5756 5755 5754 5754 5753 5751 5750 5748 5747 5745 5744
5762 5762 5762 5762 5761 5762 5765 5764 5763 5762 5762 5762 5761 5761 5760 5759 5759 5759 5758 5758 5757 5757 5757 5756 5756 5755 5754 5754 5753 5752 5752 5751 5750 5749 5748 5748 5747 5746 5744 5743 5742 5740 5739 5737
5756 5756 5757 5756 5755 5756 5760 5758 5756 5756 5756 5756 5754 5754 5754 5753 5753 5754 5752 5751 5751 5750 5750 5750 5749 5748 5748 5747 5746 5746 5745 5744 5743 5742 5742 5740 5740 5739 5738 5736 5735 5733 5731 5730
5751 5751 5751 5750 5749 5750 5753 5751 5750 5751 5751 5749 5748 5747 5746 5746 5746 5746 5745 5744 5744 5744 5744 5743 5742 5742 5741 5740 5740 5739 5738 5737 5737 5735 5734 5733 5732 5731 5730 5728 5727 5725 5723 5722
5745 5745 5745 5745 5744 5747 5746 5745 5745 5744 5742 5742 5741 5740 5740 5739 5739 5738 5738 5737 5737 5737 5737 5736 5736 5735 5734 5733 5733 5732 5731 5730 5729 5728 5727 5726 5724 5723 5722 5720 5719 5717 5715 5714
5739 5740 5739 5740 5742 5741 5739 5738 5737 5736 5736 5735 5734 5734 5733 5732 5732 5731 5731 5730 5730 5730 5730 5729 5728 5728 5727 5726 5726 5725 5724 5723 5722 5721 5720 5718 5717 5715 5714 5712 5710 5709 5707 5706
5733 5733 5733 5733 5734 5734 5732 5731 5731 5730 5729 5728 5727 5727 5726 5725 5725 5724 5724 5724 5723 5723 5722 5722 5721 5721 5720 5719 5718 5717 5716 5715 5714 5713 5712 5711 5709 5707 5706 5704 5702 5701 5699 5698
5726 5726 5726 5726 5727 5726 5726 5725 5724 5723 5722 5722 5721 5720 5719 5719 5718 5717 5717 5716 5716 5716 5715 5715 5714 5713 5713 5712 5711 5710 5709 5708 5707 5705 5704 5703 5701 5700 5698 5696 5695 5693 5692 5690
5719 5719 5719 5719 5719 5719 5719 5719 5717 5716 5716 5715 5714 5713 5713 5712 5711 5710 5710 5710 5709 5708 5708 5707 5706 5706 5705 5705 5704 5703 5701 5700 5699 5698 5697 5695 5694 5692 5690 5688 5687 5685 5683 5682
Wind_Speed
12 12 12 13 13 13 13 13 13 12 13 13 13 13 12 12 11 11 11 11 11 10 10 9 9 10 9 9 9 10 10 9 9 9 10 11 12 12 13 13 13 13 13 13
13 12 12 13 13 14 13 13 13 13 13 13 13 13 12 12 12 12 12 12 11 10 10 10 10 10 10 10 10 11 11 11 11 11 12 13 13 14 15 14 14 14 13 14
13 12 13 13 13 14 14 13 13 14 13 13 13 13 13 13 13 13 13 13 12 11 11 11 12 11 11 11 11 12 12 12 12 13 13 14 15 15 15 15 15 15 15 15
12 12 12 12 12 13 13 12 13 13 14 14 14 14 12 13 14 14 13 13 13 12 12 12 13 13 12 12 12 13 14 14 13 14 14 15 16 16 16 16 16 16 16 16
12 12 12 12 12 13 13 12 13 13 14 14 14 15 13 14 14 14 14 14 15 14 13 13 13 14 14 13 13 15 15 15 15 15 15 16 17 17 17 17 17 17 17 17
12 12 12 12 13 13 12 13 13 14 14 15 15 16 14 14 15 15 15 15 15 15 15 15 15 15 15 15 15 16 15 16 16 16 16 17 17 18 17 17 17 17 17 17
11 11 12 12 13 13 13 14 14 14 15 15 15 16 15 15 15 15 16 16 16 16 16 16 16 17 17 16 16 17 16 17 17 18 18 17 17 17 17 17 17 18 18 17
11 11 11 12 13 13 14 14 15 16 16 15 15 16 15 16 17 17 16 17 17 17 17 17 17 18 18 17 17 17 18 18 18 18 18 17 17 17 17 17 18 18 18 18
12 12 12 12 13 14 15 15 16 17 17 17 16 16 15 16 17 17 17 17 18 18 18 18 18 18 18 18 18 18 19 19 19 19 18 18 17 18 17 18 18 18 18 18
13 13 13 13 13 14 15 16 16 17 18 18 17 16 15 16 16 17 17 17 18 18 19 18 18 18 18 18 19 19 19 19 20 20 19 19 19 19 19 19 19 19 19 19
13 13 13 14 14 14 15 16 17 18 18 19 18 16 15 16 17 18 18 18 19 19 18 18 18 18 18 18 19 19 19 19 20 20 20 20 20 20 20 20 20 20 20 20
14 15 15 15 15 15 16 16 17 18 19 19 19 17 16 17 17 18 19 19 19 18 18 18 18 18 18 18 19 19 19 20 21 21 21 21 20 21 21 20 20 20 20 21
15 16 16 16 16 16 17 17 18 19 20 20 20 18 17 18 18 18 19 19 19 19 19 19 19 19 19 19 20 20 20 21 22 22 21 21 21 21 21 21 21 21 21 22
17 17 17 17 17 17 17 18 18 20 20 20 19 19 18 19 19 19 19 20 20 19 20 20 20 20 21 21 21 21 21 22 22 23 22 22 22 22 22 22 22 23 23 23
18 18 18 18 19 19 19 19 20 20 20 21 20 20 20 20 19 19 19 20 21 20 20 20 20 21 21 22 22 22 22 22 22 23 22 22 22 22 22 23 23 23 23 23
19 20 19 19 20 20 20 21 21 21 21 21 21 20 20 20 20 20 20 20 21 21 21 20 21 22 23 23 22 22 23 23 23 23 22 22 22 22 23 23 23 24 23 23
20 20 21 20 20 22 21 21 22 22 22 22 21 20 21 21 20 20 20 21 21 21 21 21 22 24 24 23 23 23 23 23 23 23 22 22 22 22 23 23 23 24 24 24
20 21 21 21 21 22 19 20 21 22 21 21 22 22 23 22 22 21 21 21 21 21 21 22 23 23 24 24 24 23 23 23 23 23 23 22 22 23 23 23 23 24 25 24
20 21 22 22 22 22 20 20 21 22 21 22 22 22 23 24 23 22 22 22 22 22 23 23 23 23 23 23 23 23 22 23 23 24 23 23 24 24 24 24 25 25 26 26
21 21 22 23 23 23 20 21 22 23 22 22 23 23 24 24 24 23 23 23 23 22 23 23 24 24 23 23 23 23 23 24 24 24 24 24 24 25 25 25 26 26 27 27
21 22 22 22 23 22 21 22 23 23 23 22 23 23 23 24 24 23 23 23 23 23 22 22 23 23 23 23 23 24 24 24 25 25 25 26 26 25 26 26 26 27 27 27
22 22 22 22 23 22 22 23 23 22 23 22 23 23 23 24 24 24 23 23 23 23 23 23 23 23 23 24 24 24 25 25 26 26 26 27 27 27 26 27 27 27 27 27
23 23 23 23 23 22 23 23 23 23 23 23 23 23 24 24 24 24 23 23 23 24 24 23 24 24 23 24 24 24 25 26 26 26 27 27 27 27 27 28 28 28 28 27
24 24 24 24 23 23 23 23 23 23 24 24 23 23 23 24 24 23 23 23 24 24 23 24 24 24 24 25 25 25 26 26 26 26 27 27 27 27 27 28 28 27 27 27
23 25 25 25 25 25 24 24 24 24 24 24 24 23 23 22 23 23 23 23 23 24 25 25 24 25 25 25 25 26 27 27 27 27 27 27 27 27 27 28 27 27 27 27
24 25 26 26 26 26 25 25 25 25 25 25 25 24 22 22 22 22 22 22 23 24 25 25 25 25 25 26 26 27 27 28 27 26 27 27 27 27 27 27 27 27 27 27
Wind_Direction
243 243 241 242 244 244 242 243 244 247 249 249 252 252 253 255 260 261 265 268 267 266 266 269 274 275 277 277 277 276 277 278 282 287 288 288 290 294 295 294 291 289 289 290
244 244 242 243 243 242 242 245 247 249 251 253 255 255 256 257 259 262 263 264 264 262 261 264 270 272 274 274 274 275 277 281 284 286 288 290 292 294 293 291 288 287 288 291
246 247 247 246 244 244 245 248 251 252 251 255 258 257 255 257 260 261 262 262 261 261 261 265 268 272 273 275 275 278 281 282 285 286 288 289 291 292 293 291 286 286 287 290
248 248 247 245 243 246 246 248 250 252 256 256 260 261 256 258 261 261 259 258 259 261 263 265 268 270 272 271 272 275 278 281 283 287 287 288 290 292 292 290 288 287 288 290
243 242 244 243 242 245 247 249 253 255 259 260 260 263 260 260 262 261 258 256 257 259 262 266 269 270 271 272 272 274 276 279 283 287 288 288 288 290 291 290 288 288 289 291
242 242 243 241 242 247 251 254 255 257 260 261 264 267 265 262 261 261 259 257 258 260 262 264 267 269 270 272 274 275 274 279 283 287 288 288 287 288 290 289 288 289 290 291
242 242 242 241 243 247 252 255 257 259 260 264 268 270 269 264 263 264 263 261 260 260 261 263 266 268 270 271 274 276 277 279 281 284 285 285 286 288 290 289 288 289 290 290
246 246 248 248 250 251 253 256 260 266 267 269 271 272 272 269 267 268 266 263 262 261 263 266 266 266 268 271 274 275 278 280 281 283 282 282 284 288 290 290 289 289 290 290
252 247 248 252 255 258 259 258 261 266 270 273 274 274 271 271 271 269 266 265 264 264 265 267 266 264 266 270 273 274 278 281 281 282 281 280 283 286 289 289 286 287 289 291
259 254 253 259 260 259 261 262 263 266 272 276 278 278 276 275 274 272 269 266 266 267 266 267 268 267 269 272 274 275 277 279 280 281 282 280 282 284 286 288 287 286 290 292
262 263 260 260 261 262 264 264 265 268 273 278 282 280 280 280 276 273 270 269 266 268 268 267 268 269 270 273 274 275 278 279 280 281 280 279 280 282 284 286 287 288 289 290
263 265 263 261 262 263 265 268 267 270 274 278 282 284 282 280 277 275 274 271 268 270 268 268 268 269 271 273 273 275 277 278 279 281 281 279 281 282 282 283 286 287 288 290
261 264 265 262 264 264 266 268 268 271 274 276 279 283 284 282 279 277 275 273 271 272 271 272 272 270 270 272 274 276 275 277 279 280 279 279 281 281 281 283 286 287 288 289
259 262 265 265 268 269 269 270 270 271 272 275 276 281 282 283 281 277 276 274 274 274 275 274 275 273 272 272 274 275 278 279 279 279 278 279 281 282 282 282 284 285 287 288
260 262 263 267 269 270 272 272 271 272 274 275 276 280 281 281 281 277 276 275 275 275 275 274 275 275 274 275 276 277 277 279 279 279 279 278 280 282 283 283 284 285 286 287
262 264 265 267 270 269 271 272 273 273 274 275 275 277 278 279 279 277 277 278 276 275 275 274 275 275 277 276 277 278 277 277 278 277 276 277 280 283 284 285 285 286 287 287
266 267 268 270 272 272 272 273 273 275 275 274 274 274 274 278 277 277 277 278 276 275 275 276 277 279 280 279 277 278 277 277 277 275 275 276 278 281 284 286 286 287 287 287
269 269 270 272 272 272 278 276 275 276 274 273 274 274 275 278 276 277 277 278 277 275 275 277 279 281 282 281 280 278 278 277 276 275 276 277 278 281 283 285 286 287 286 286
270 270 271 272 272 274 276 279 278 277 274 275 276 276 275 275 276 276 277 277 276 275 275 277 280 281 281 280 280 278 278 278 278 277 276 277 280 281 282 283 285 286 286 287
269 270 272 274 276 277 277 279 279 278 278 277 277 276 276 276 277 278 277 277 275 274 277 279 281 280 280 279 278 278 277 278 278 277 276 278 281 281 282 284 285 286 286 286
268 270 272 275 277 279 279 280 280 280 281 279 278 278 279 278 278 278 278 278 275 276 278 281 281 280 280 279 278 279 279 279 279 278 277 280 282 281 282 283 284 285 285 286
267 269 271 273 275 278 281 282 283 283 282 281 280 281 282 281 280 279 279 278 276 276 277 279 281 280 280 280 280 280 279 279 279 279 279 282 284 284 283 284 285 286 285 286
265 267 269 272 276 279 280 282 284 284 283 282 282 282 282 282 282 281 276 273 275 277 277 278 279 278 278 279 278 279 278 277 279 280 281 283 284 283 283 284 285 286 286 286
264 266 269 273 276 277 280 279 281 282 283 282 282 281 281 282 280 279 277 275 275 276 276 279 281 279 279 279 278 279 278 279 280 281 282 283 283 282 283 284 284 285 285 286
265 268 270 272 274 276 278 279 279 280 282 283 283 281 280 280 280 278 277 276 276 277 278 278 277 278 279 279 280 280 280 281 280 281 282 283 284 284 284 284 284 284 284 285
266 268 270 272 274 276 277 279 280 280 281 283 284 280 279 278 278 278 277 275 276 277 278 279 279 279 280 280 280 281 282 283 283 281 282 283 283 284 284 284 284 284 284 284